Location: Southlake
(32.9412°N, 97.1342°W)
Time: 10:34:44
(UTC+00:00)

Cosmos 1939 Rocket - Pass Details

Date: 03 December 2021
Orbit: 531 x 583 km, 97.4° (Epoch: 23 January)

Event Time Altitude Azimuth Distance (km) Brightness Sun altitude
Rises 12:39:38 0° 8° (N) 2,716 6.2 -7.7°
Reaches altitude 10° 12:41:47 10° 7° (N) 1,812 5.3 -7.3°
Maximum altitude 12:45:41 72° 283° (WNW) 568 2.7 -6.5°
Drops below altitude 10° 12:49:30 10° 199° (SSW) 1,779 5.5 -5.8°
Sets 12:51:35 0° 197° (SSW) 2,661 6.4 -5.4°
